Zurück zum Katalog

ONEWEB-0474

AktivKommunikationPO
NORAD 51654·PAYLOAD·🇬🇧 United Kingdom

Gestartet Feb 10, 2022 von Guiana Space Centre

Loading…

Nächste Überflüge (nächste 24 Stunden)

TLE

AktuellSource: CelesTrak SupGP

Epoche: Sep 14, 2026, 14:16 UTC

1 51654C 22012AJ  26257.59498100 -.00000760  00000+0 -21808-2 0  2578
2 51654  87.8901  18.4650 0001853  99.4604 312.0576 13.10368984    17

Verfolge ONEWEB-0474 in Echtzeit mit AllMySat

Download on the App Store